Location: Limerick
(52.6800°N, 8.6400°W)
Time: 23:28:57
(UTC+01:00)

Daily predictions for brighter satellites

Satellite Brightness Start Highest point End
(mag) Time Altitude Azimuth Time Altitude Azimuth Time Altitude Azimuth
BREEZE-M DEB (TANK) 3.5 20:54:47 10° W 20:57:34 54° S 21:04:49 10° ESE
Cosmos 1605 Rocket 4.1 20:55:32 10° S 21:01:45 63° E 21:07:54 10° NNE
Cosmos 1939 Rocket 3.6 21:02:46 10° SE 21:06:37 38° ENE 21:10:32 10° N
Cosmos 1515 3.7 21:07:14 10° N 21:11:05 70° ENE 21:14:55 10° SSE
Cosmos 1066 Rocket 4.3 21:05:45 10° N 21:11:22 64° ENE 21:17:05 10° SSE
Cosmos 1825 Rocket 4.2 21:09:10 10° N 21:13:20 38° ENE 21:17:27 10° SE
EO 1 Delta rocket 3.9 21:09:28 10° NNE 21:14:06 72° E 21:19:14 10° S
Cosmos 1697 Rocket 3.3 21:11:30 10° S 21:16:30 33° ESE 21:21:30 10° NE
Iridium 4 Rocket 3.4 21:15:57 10° N 21:21:11 77° E 21:25:54 10° S
Cosmos 2208 Rocket 4.2 21:16:18 10° SSW 21:21:41 86° WNW 21:27:10 10° NNE
USA 186 2.5 21:19:36 10° S 21:22:29 48° W 21:25:12 10° NNW
Cosmos 2298 Rocket 4.3 21:17:19 10° NNW 21:22:38 71° WSW 21:27:55 10° SSE
Cosmos 1953 Rocket 4.3 21:19:58 10° N 21:24:07 37° ENE 21:28:17 10° SE
Cosmos 1937 Rocket 3.5 21:19:49 10° NNW 21:25:08 86° ENE 21:30:27 10° SSE
Cosmos 2278 3.7 21:20:07 10° SSW 21:25:48 84° ESE 21:31:34 10° NNE
NOSS 2-1 (D) 4.0 21:23:04 10° WSW 21:27:08 69° NW 21:32:11 10° NE
SL-16 R/B 4.0 21:26:24 10° E 21:27:08 10° E 21:27:52 10° E
RESURS DK-1 2.5 21:22:59 10° NW 21:27:08 76° WSW 21:31:17 10° SSE
ATLAS CENTAUR R/B 3.5 21:23:17 10° W 21:27:48 34° NNW 21:32:11 10° NE
NOSS 2-1 (C) 4.0 21:24:06 10° WSW 21:28:10 69° NW 21:33:13 10° NE
Envisat 3.1 21:23:56 10° SSE 21:28:56 62° ENE 21:33:58 10° N
Cosmos 1626 Rocket 4.2 21:26:19 10° NNW 21:30:41 59° W 21:34:59 10° S
Cosmos 1743 3.5 21:29:09 10° SSE 21:32:39 32° E 21:36:11 10° NNE
H-2A R/B 2.3 21:29:23 10° SE 21:33:19 47° ENE 21:37:21 10° N
ARGOS 4.1 21:30:17 11° ESE 21:34:40 32° ENE 21:39:24 10° N
Cosmos 990 Rocket 4.0 21:31:03 10° NNW 21:36:21 82° ENE 21:41:36 10° SSE
YAOGAN 11 4.2 21:33:15 10° SSE 21:37:46 82° WSW 21:42:14 10° NNW
Cosmos 1980 Rocket 2.9 21:35:00 10° SSE 21:39:56 32° ESE 21:44:56 10° NE
Cosmos 2369 3.8 21:34:33 10° SSW 21:40:16 87° WNW 21:46:02 10° NNE
Cosmos 1459 Rocket 4.1 21:35:12 10° SSE 21:41:04 53° E 21:47:01 10° NNE
Cosmos 1455 Rocket 4.2 21:37:07 10° SSW 21:41:18 46° WNW 21:45:34 10° N
Tiangong 1 3.5 21:40:31 10° SSW 21:41:36 11° SSW 21:42:40 10° S
Lacrosse 5 2.9 21:37:54 10° WNW 21:42:34 38° SW 21:47:13 10° SSE
Cosmos 1758 Rocket 3.9 21:38:37 10° N 21:42:52 46° ENE 21:46:23 14° SE
NOSS 2-1 (E) 4.3 21:40:10 10° WSW 21:44:19 59° NW 21:49:32 10° NE
MetOp-B 4.4 21:42:42 12° SE 21:47:31 54° ENE 21:52:44 10° N
H-2A R/B 3.4 21:44:55 13° E 21:48:00 22° ENE 21:51:44 10° N
deb Chang Zheng 4 4.3 21:44:02 10° NNE 21:48:08 34° E 21:52:10 10° SSE
ERS-1 Rocket 3.3 21:49:51 10° S 21:54:51 68° WSW 21:59:54 10° NNW
SPOT 5 2.9 21:51:35 13° SSE 21:56:03 67° ENE 22:00:43 10° N
Cosmos 1842 3.5 21:53:32 10° N 21:57:22 50° ENE 21:59:52 20° SE
BREEZE-M DEB (TANK) 4.3 21:47:53 10° SW 21:58:37 32° S 22:01:33 19° ESE
Cosmos 2263 Rocket 2.9 21:55:01 10° NNW 22:00:19 42° NE 22:04:05 18° ESE
Cosmos 1656 3.6 21:55:19 10° SSW 22:00:55 83° ESE 22:06:29 10° NNE
USA 215 3.3 21:56:42 14° ESE 22:02:24 80° NNE 22:08:58 10° WNW
Cosmos 2098 Rocket 4.2 21:59:00 10° SSE 22:05:12 44° E 22:10:17 10° NNE
Cosmos 1975 4.0 22:01:23 10° SSW 22:05:22 48° WNW 22:09:22 10° N
SPOT 1/Viking Rocket 3.8 22:03:18 19° SE 22:06:58 54° ENE 22:12:03 10° N
Cosmos 1763 Rocket 3.7 22:02:51 10° S 22:07:39 44° ESE 22:12:27 10° NE
Cosmos 1125 Rocket 3.5 22:06:10 10° NNW 22:11:23 71° ENE 22:14:49 22° SE
Cosmos 2322 Rocket 3.2 22:11:45 21° SE 22:13:22 24° ESE 22:17:49 10° NE
PSLV R/B 3.1 22:13:20 32° SE 22:14:33 66° ENE 22:17:37 10° N
Cosmos 2058 Rocket 3.4 22:12:01 19° SSE 22:14:54 45° E 22:19:14 10° NNE
Meteor 1-21 4.5 22:10:28 10° NNW 22:16:14 74° W 22:21:57 10° S
Cosmos 1666 3.0 22:16:04 26° SSE 22:17:46 45° E 22:21:27 10° NNE
Cosmos 2297 Rocket 4.5 22:14:07 10° NW 22:18:05 20° W 22:22:02 10° SW
Cosmos 1802 Rocket 4.0 22:12:04 10° S 22:18:29 82° E 22:24:57 10° NNE
Cosmos 1606 Rocket 3.5 22:15:26 10° S 22:19:49 74° E 22:24:18 10° NNE
Terra 2.9 22:19:14 22° ESE 22:21:18 31° ENE 22:25:28 10° N
Cosmos 468 Rocket 4.1 22:19:42 10° SSW 22:24:50 78° WNW 22:30:01 10° NNE
Meteor 2-9 Rocket 4.3 22:21:32 16° SSE 22:25:43 53° E 22:30:56 10° NNE
Cosmos 2360 4.4 22:21:20 10° S 22:26:50 49° ESE 22:32:21 10° NE
Cosmos 2016 Rocket 3.9 22:23:02 10° S 22:29:10 82° E 22:35:26 10° NNE
CZ-4 SHROUD 3.0 22:29:09 42° SSE 22:30:05 89° WSW 22:33:10 10° NNW
Cosmos 841 Rocket 3.5 22:25:45 10° S 22:30:53 59° ESE 22:36:01 10° NNE
CARTOSAT-1 4.5 22:30:17 27° ESE 22:31:42 34° ENE 22:35:38 10° N
Cosmos 1340 4.0 22:28:59 10° NNW 22:32:32 38° W 22:35:39 13° SSW
MetOp-A 4.4 22:29:42 16° S 22:33:58 69° WSW 22:39:20 10° NNW
YAOGAN 6 2.9 22:32:44 25° S 22:34:45 65° WSW 22:38:30 10° NNW
Cosmos 1814 Rocket 4.2 22:30:59 10° SSW 22:36:18 75° WNW 22:41:37 10° NNE
Cosmos 2173 Rocket 4.4 22:35:14 10° SSW 22:41:33 66° WNW 22:47:52 10° N
ASTEX 1 3.5 22:37:49 10° N 22:42:51 82° W 22:47:01 15° SSW
Cosmos 1726 Rocket 3.6 22:39:08 13° SSW 22:42:58 80° W 22:47:26 10° N
Cosmos 540 Rocket 4.1 22:43:12 32° ESE 22:43:55 34° ESE 22:48:31 10° NE
Cosmos 1238 4.5 22:43:50 10° NNW 22:47:08 65° W 22:47:49 47° SSW
Cosmos 2278 Rocket 4.1 22:44:47 10° NNW 22:49:01 21° NNE 22:53:03 11° ENE
Genesis I 3.3 22:47:12 10° NW 22:51:11 67° NE 22:52:07 48° ESE
Cosmos 405 Rocket 2.5 22:48:22 10° NNW 22:52:11 83° ENE 22:52:57 55° SSE
Cosmos 372 Rocket 3.9 22:47:31 10° NNW 22:52:40 87° WSW 22:54:49 36° SSE
Cosmos 1812 Rocket 4.2 22:52:39 35° E 22:52:48 36° E 22:56:47 10° NNE
Cosmos 1864 Rocket 4.4 22:52:25 16° S 22:57:26 88° E 23:03:37 10° N
Tsikada Rocket 4.3 22:53:49 10° NNW 23:00:11 66° W 23:04:45 20° S
Cosmos 1697 Rocket 3.4 22:54:42 10° SW 23:00:16 55° NW 23:05:50 10° NNE
IGS 5A 3.6 23:02:37 49° ESE 23:03:16 55° ENE 23:07:22 10° N
Cosmos 2346 Rocket 4.4 23:01:15 10° N 23:07:33 85° E 23:10:23 35° SSE
ATLAS CENTAUR R/B 4.3 23:04:39 10° NW 23:08:11 19° N 23:11:34 10° NE
SL-19 R/B 4.1 23:03:32 10° NNE 23:09:08 87° ESE 23:12:27 24° SSW
H-2A R/B 4.1 23:06:29 11° SW 23:09:37 22° W 23:12:55 10° NW
SL-16 R/B 2.2 23:07:49 35° S 23:10:00 56° ESE 23:15:34 10° NE
BREEZE-M DEB (TANK) 4.4 23:08:17 10° WSW 23:09:04 14° SW 23:09:04 14° SW
CZ-4C R/B 3.5 23:10:03 53° SSE 23:11:06 86° ENE 23:15:28 10° NNW
BREEZE-M DEB (TANK) 4.3 22:52:24 10° WNW 23:12:11 52° SW 23:14:51 34° SSE
Cosmos 1844 Rocket 3.6 23:07:08 10° NNW 23:12:20 38° NE 23:14:33 27° E
SL-08 RB Rocket 4.2 23:11:27 34° SSW 23:13:18 58° W 23:17:54 10° NNW
ARGOS 3.7 23:11:49 26° SSW 23:14:43 53° W 23:20:01 10° NNW
CZ-4B R/B 3.2 23:13:46 10° NNE 23:18:34 86° ESE 23:20:15 41° SSW
Cosmos 2228 3.3 23:16:48 32° SSW 23:18:36 64° WNW 23:22:54 10° N
Cosmos 1980 Rocket 2.8 23:18:04 10° SW 23:23:41 58° NW 23:29:21 10° NNE
Cosmos 2360 Rocket 3.1 23:24:56 31° E 23:24:56 31° E 23:29:16 10° NE
H-2A R/B 2.0 23:25:34 45° S 23:27:00 71° WSW 23:31:56 10° NNW
Meteor 2-17 Rocket 4.4 23:24:21 29° SSW 23:27:38 84° W 23:33:44 10° N
SWAS 4.5 23:26:05 34° SW 23:27:54 80° NW 23:32:17 10° NNE
GP-B 2.9 23:24:51 10° N 23:29:20 83° E 23:29:50 70° SSE
Cosmos 1725 Rocket 4.5 23:23:59 13° SSW 23:29:36 58° WNW 23:35:48 10° N
Okean 3 Rocket 3.4 23:30:12 10° N 23:34:39 85° E 23:34:58 76° SSE
Cosmos 332 Rocket 3.7 23:39:57 49° SSW 23:41:16 86° WNW 23:46:14 10° NNE
Cosmos 1538 Rocket 4.4 23:42:35 46° E 23:42:35 46° E 23:47:28 10° NE
Cosmos 1707 3.0 23:38:47 10° NNW 23:42:38 61° W 23:42:38 61° W
CRYOSAT 2 4.3 23:38:38 10° N 23:43:32 64° E 23:43:46 63° ESE
Cosmos 2263 Rocket 2.8 23:39:03 10° NW 23:44:21 46° WSW 23:45:46 38° SSW
Cosmos 371 Rocket 3.1 23:44:19 73° SE 23:44:30 75° ESE 23:49:21 10° NNE
Cosmos 2219 Rocket 4.3 23:46:32 12° ENE 23:46:32 12° ENE 23:47:18 10° ENE
USA 215 3.6 23:44:03 41° S 23:45:43 50° SW 23:52:05 10° WNW
Cosmos 783 Rocket 4.4 23:44:30 46° SSW 23:46:07 88° WNW 23:51:27 10° NNE
Meteor 2-5 Rocket 4.2 23:40:18 10° NNW 23:46:08 57° W 23:48:12 38° SSW
Cosmos 1072 Rocket 4.4 23:46:31 51° SSE 23:48:09 73° E 23:54:19 10° NNE
ALOS 2 4.0 23:50:23 27° ENE 23:50:29 27° ENE 23:54:12 10° N
Cosmos 921 Rocket 3.5 23:47:20 10° NNW 23:51:39 50° ENE 23:51:39 50° ENE
Cosmos 1408 Rocket 3.7 23:47:54 10° N 23:52:12 62° ENE 23:52:12 62° ENE
GEOS 3 Rocket 3.7 23:47:59 10° NE 23:52:25 53° E 23:52:25 53° E
Cosmos 2233 Rocket 4.4 23:50:02 26° SSW 23:53:37 61° WNW 23:59:50 10° N
CZ-4B R/B 3.8 23:56:56 17° NE 23:56:56 17° NE 23:58:50 10° NNE
